CW7171 Weather Reports


Display with metric or nautical units.
time (UTC)temp
F
wind
direction
speed
MPH
gust
MPH
rain 1hr
in
rain 24hr
in
rain mn
in
humidity
%
barometer
mb
20180622223604 47 337 2.0 9.0 0.00 0.00 0.00 79 998.6
20180622223103 47 329 3.0 8.0 0.00 0.00 0.00 79 998.6
20180622222603 47 294 3.0 10.0 0.00 0.00 0.00 78 998.5
20180622222104 47 280 3.0 6.0 0.00 0.00 0.00 78 998.5
20180622221603 48 285 2.0 12.0 0.00 0.00 0.00 79 998.5
20180622221106 48 307 3.0 12.0 0.00 0.00 0.00 78 998.5
20180622220604 48 288 2.0 7.0 0.00 0.00 0.00 78 998.5
20180622220104 48 349 2.0 5.0 0.00 0.00 0.00 77 998.5
20180622215603 48 307 2.0 10.0 0.00 0.00 0.00 77 998.5
20180622215103 48 346 3.0 7.0 0.00 0.00 0.00 77 998.5
20180622214603 48 286 4.0 12.0 0.00 0.00 0.00 77 998.4
20180622214104 48 334 3.0 7.0 0.00 0.00 0.00 76 998.5
20180622213604 48 325 2.0 6.0 0.00 0.00 0.00 77 998.5
20180622213104 48 320 3.0 5.0 0.00 0.00 0.00 77 998.5
20180622212604 48 342 2.0 9.0 0.00 0.00 0.00 77 998.5
20180622212103 48 317 3.0 13.0 0.00 0.00 0.00 77 998.4
20180622211604 48 301 3.0 10.0 0.00 0.00 0.00 76 998.4
20180622211104 48 315 3.0 8.0 0.00 0.00 0.00 76 998.5
20180622210603 49 290 3.0 9.0 0.00 0.00 0.00 75 998.5
20180622210104 49 311 3.0 7.0 0.00 0.00 0.00 74 998.5
20180622205604 49 305 4.0 10.0 0.00 0.00 0.00 74 998.5
20180622205104 49 289 4.0 10.0 0.00 0.00 0.00 74 998.5
20180622204604 49 315 4.0 12.0 0.00 0.00 0.00 73 998.4
20180622204103 49 313 5.0 9.0 0.00 0.00 0.00 73 998.3
20180622203603 49 334 5.0 9.0 0.00 0.00 0.00 73 998.4
20180622203104 49 332 3.0 7.0 0.00 0.00 0.00 73 998.3
20180622202604 49 303 3.0 7.0 0.00 0.00 0.00 73 998.2
20180622202104 49 340 3.0 8.0 0.00 0.00 0.00 73 998.2
20180622201603 49 330 3.0 7.0 0.00 0.00 0.00 72 998.3
20180622201104 50 316 3.0 12.0 0.00 0.00 0.00 72 998.2
20180622200603 50 315 2.0 10.0 0.00 0.00 0.00 73 998.2
20180622200104 50 329 3.0 7.0 0.00 0.00 0.00 73 998.1
20180622195603 50 353 2.0 6.0 0.00 0.00 0.00 72 998.1
20180622195103 50 292 2.0 7.0 0.00 0.00 0.00 72 998.0
20180622194604 50 327 4.0 9.0 0.00 0.00 0.00 71 998.0
20180622194103 50 344 2.0 10.0 0.00 0.00 0.00 70 998.0
20180622193603 50 282 2.0 6.0 0.00 0.00 0.00 70 998.0
20180622193104 50 306 4.0 12.0 0.00 0.00 0.00 70 997.9
20180622192603 50 320 3.0 8.0 0.00 0.00 0.00 69 997.9
20180622192104 51 328 3.0 8.0 0.00 0.00 0.00 69 997.8
20180622191603 51 304 3.0 8.0 0.00 0.00 0.00 68 997.8
20180622191104 51 341 3.0 8.0 0.00 0.00 0.00 67 997.8
20180622190604 51 279 3.0 8.0 0.00 0.00 0.00 68 997.8
20180622190104 51 299 4.0 8.0 0.00 0.00 0.00 67 997.7
20180622185604 52 316 3.0 10.0 0.00 0.00 0.00 66 997.7
20180622185103 52 318 3.0 8.0 0.00 0.00 0.00 66 997.7
20180622184604 52 293 3.0 7.0 0.00 0.00 0.00 67 997.6
20180622184103 52 314 3.0 8.0 0.00 0.00 0.00 66 997.5
20180622183604 52 314 5.0 16.0 0.00 0.00 0.00 67 997.5
20180622183103 52 318 3.0 7.0 0.00 0.00 0.00 67 997.6
20180622182604 52 286 2.0 6.0 0.00 0.00 0.00 70 997.6
20180622182103 52 339 2.0 6.0 0.00 0.00 0.00 70 997.7
20180622181604 52 308 3.0 12.0 0.00 0.00 0.00 69 997.7
20180622181104 52 321 2.0 8.0 0.00 0.00 0.00 70 997.7
20180622180603 52 318 2.0 10.0 0.00 0.00 0.00 70 997.6
20180622180104 52 326 3.0 6.0 0.00 0.00 0.00 70 997.7
20180622175603 52 313 3.0 10.0 0.00 0.00 0.00 70 997.7
20180622175103 52 340 3.0 14.0 0.00 0.00 0.00 70 997.6
20180622174604 52 336 3.0 8.0 0.00 0.00 0.00 70 997.7
20180622174104 52 312 3.0 8.0 0.00 0.00 0.00 71 997.6
20180622173604 52 5 4.0 10.0 0.00 0.00 0.00 72 997.7
20180622173104 52 312 3.0 7.0 0.00 0.00 0.00 72 997.7
20180622172604 52 313 3.0 9.0 0.00 0.00 0.00 71 997.7
20180622172104 53 327 3.0 7.0 0.00 0.00 0.00 70 997.7
20180622171603 53 297 4.0 10.0 0.00 0.00 0.00 70 997.6
20180622171104 53 284 2.0 6.0 0.00 0.00 0.00 70 997.6
20180622170603 53 275 2.0 5.0 0.00 0.00 0.00 67 997.7
20180622170104 53 316 1.0 6.0 0.00 0.00 0.00 67 997.7
20180622165604 54 281 1.0 5.0 0.00 0.00 0.00 66 997.7
20180622165103 54 342 1.0 6.0 0.00 0.00 0.00 64 997.6
20180622164604 54 6 2.0 7.0 0.00 0.00 0.00 62 997.6
20180622164104 54 341 6.0 12.0 0.00 0.00 0.00 60 997.7
20180622163604 55 347 4.0 9.0 0.00 0.00 0.00 61 997.7
20180622163104 55 329 2.0 7.0 0.00 0.00 0.00 61 997.5
20180622162604 55 348 3.0 6.0 0.00 0.00 0.00 61 997.4
20180622162103 55 303 2.0 5.0 0.00 0.00 0.00 60 997.5
20180622161604 55 321 1.0 5.0 0.00 0.00 0.00 61 997.5
20180622161104 55 289 2.0 8.0 0.00 0.00 0.00 60 997.5
20180622160604 55 356 3.0 7.0 0.00 0.00 0.00 63 997.5
20180622160103 55 337 3.0 8.0 0.00 0.00 0.00 63 997.5
20180622155603 55 331 4.0 8.0 0.00 0.00 0.00 65 997.4
20180622155104 56 335 2.0 5.0 0.00 0.00 0.00 62 997.5
20180622154604 56 303 3.0 7.0 0.00 0.00 0.00 55 997.5
20180622154103 56 326 2.0 8.0 0.00 0.00 0.00 56 997.6
20180622153603 56 342 4.0 9.0 0.00 0.00 0.00 55 997.6
20180622153104 56 342 4.0 7.0 0.00 0.00 0.00 55 997.6
20180622152603 56 317 3.0 8.0 0.00 0.00 0.00 55 997.6
20180622152104 56 346 4.0 9.0 0.00 0.00 0.00 54 997.6
20180622151603 56 348 4.0 12.0 0.00 0.00 0.00 54 997.6
20180622151103 56 296 3.0 7.0 0.00 0.00 0.00 55 997.6
20180622150604 57 342 5.0 10.0 0.00 0.00 0.00 54 997.6
20180622150104 57 333 4.0 12.0 0.00 0.00 0.00 54 997.7
20180622145604 57 331 2.0 7.0 0.00 0.00 0.00 55 997.6
20180622145104 56 327 3.0 8.0 0.00 0.00 0.00 55 997.7
20180622144603 56 356 4.0 8.0 0.00 0.00 0.00 55 997.7
20180622144104 56 341 3.0 10.0 0.00 0.00 0.00 56 997.7
20180622143604 56 349 3.0 12.0 0.00 0.00 0.00 56 997.7
20180622143104 56 358 3.0 14.0 0.00 0.00 0.00 56 997.8
20180622142604 56 343 4.0 17.0 0.00 0.00 0.00 57 997.8
20180622142104 56 357 2.0 7.0 0.00 0.00 0.00 57 997.8
20180622141603 56 342 5.0 10.0 0.00 0.00 0.00 56 997.9
20180622141104 56 353 2.0 9.0 0.00 0.00 0.00 57 997.8
20180622140603 56 321 3.0 12.0 0.00 0.00 0.00 57 997.8
20180622140104 55 3 4.0 8.0 0.00 0.00 0.00 56 998.0
20180622135604 55 329 4.0 10.0 0.00 0.00 0.00 57 998.0
20180622135104 55 318 3.0 10.0 0.00 0.00 0.00 58 998.1
20180622134604 55 27 5.0 14.0 0.00 0.00 0.00 57 998.1
20180622134103 55 347 5.0 12.0 0.00 0.00 0.00 57 998.2
20180622133603 55 10 5.0 9.0 0.00 0.00 0.00 57 998.2
20180622133104 55 352 2.0 7.0 0.00 0.00 0.00 58 998.1
20180622132603 55 333 3.0 7.0 0.00 0.00 0.00 58 998.1
20180622132104 55 2 5.0 13.0 0.00 0.00 0.00 59 998.1
20180622131604 55 354 6.0 10.0 0.00 0.00 0.00 60 998.1
20180622131104 54 304 1.0 5.0 0.00 0.00 0.00 65 998.0
20180622130603 54 330 2.0 5.0 0.00 0.00 0.00 63 998.1
20180622130104 54 320 1.0 8.0 0.00 0.00 0.00 64 998.1
20180622125604 54 346 2.0 8.0 0.00 0.00 0.00 62 998.2
20180622125103 54 348 4.0 8.0 0.00 0.00 0.00 63 998.3
20180622124604 54 349 2.0 6.0 0.00 0.00 0.00 64 998.2
20180622124103 54 340 4.0 7.0 0.00 0.00 0.00 62 998.3
20180622123603 54 356 4.0 9.0 0.00 0.00 0.00 63 998.4
20180622123104 54 336 3.0 7.0 0.00 0.00 0.00 64 998.5
20180622122604 54 11 4.0 13.0 0.00 0.00 0.00 65 998.6
20180622122104 54 345 5.0 8.0 0.00 0.00 0.00 63 998.6
20180622121603 54 351 2.0 10.0 0.00 0.00 0.00 64 998.5
20180622121104 53 344 2.0 7.0 0.00 0.00 0.00 65 998.7
20180622120604 53 339 2.0 8.0 0.00 0.00 0.00 65 998.7
20180622120104 53 351 2.0 7.0 0.00 0.00 0.00 65 998.7
20180622115603 53 0 3.0 12.0 0.00 0.00 0.00 64 998.7
20180622115104 53 347 4.0 8.0 0.00 0.00 0.00 64 998.7
20180622114604 53 335 3.0 9.0 0.00 0.00 0.00 64 998.7
20180622114103 54 346 3.0 6.0 0.00 0.00 0.00 63 998.7
20180622113603 54 19 2.0 9.0 0.00 0.00 0.00 64 998.6
20180622113103 53 342 2.0 9.0 0.00 0.00 0.00 63 998.6
20180622112603 53 313 1.0 3.0 0.00 0.00 0.00 65 998.6
20180622112103 53 8 5.0 14.0 0.00 0.00 0.00 65 998.6
20180622111603 53 5 2.0 8.0 0.00 0.00 0.00 65 998.6
20180622111104 53 22 3.0 8.0 0.00 0.00 0.00 65 998.5
20180622110603 53 306 2.0 6.0 0.00 0.00 0.00 64 998.6
20180622110104 53 358 3.0 7.0 0.00 0.00 0.00 65 998.6
20180622105603 54 352 2.0 9.0 0.00 0.00 0.00 65 998.6
20180622105104 54 1 3.0 7.0 0.00 0.00 0.00 64 998.7
20180622104605 53 354 3.0 9.0 0.00 0.00 0.00 64 998.6
20180622104104 53 335 1.0 8.0 0.00 0.00 0.00 65 998.7
20180622103604 53 347 3.0 8.0 0.00 0.00 0.00 64 998.8
20180622103104 53 53 3.0 12.0 0.00 0.00 0.00 66 998.8
20180622102604 53 346 2.0 9.0 0.00 0.00 0.00 65 998.9
20180622102104 52 335 1.0 5.0 0.00 0.00 0.00 67 999.0
20180622101604 52 340 2.0 10.0 0.00 0.00 0.00 65 999.0
20180622101103 52 341 2.0 10.0 0.00 0.00 0.00 65 999.1
20180622100604 52 338 3.0 6.0 0.00 0.00 0.00 65 999.2
20180622100104 52 18 3.0 10.0 0.00 0.00 0.00 65 999.2
20180622095603 52 343 3.0 7.0 0.00 0.00 0.00 65 999.2
20180622095104 52 345 3.0 6.0 0.00 0.00 0.00 65 999.3
20180622094604 52 341 3.0 10.0 0.00 0.00 0.00 64 999.3
20180622094103 52 359 5.0 7.0 0.00 0.00 0.00 64 999.4
20180622093604 52 354 2.0 7.0 0.00 0.00 0.00 65 999.5
20180622093104 52 0 3.0 6.0 0.00 0.00 0.00 64 999.5
20180622092104 52 352 3.0 7.0 0.00 0.00 0.00 64 999.7
20180622091603 52 354 1.0 8.0 0.00 0.00 0.00 65 999.7
20180622091103 51 5 2.0 6.0 0.00 0.00 0.00 64 999.7
20180622090603 51 24 6.0 12.0 0.00 0.00 0.00 64 999.8
20180622090104 51 343 2.0 10.0 0.00 0.00 0.00 64 999.8
20180622085604 51 344 3.0 7.0 0.00 0.00 0.00 64 999.9
20180622085104 51 343 3.0 8.0 0.00 0.00 0.00 65 999.9
20180622084603 51 352 3.0 8.0 0.00 0.00 0.00 63 1000.0
20180622084104 51 348 2.0 5.0 0.00 0.00 0.00 63 1000.0
20180622083604 51 4 3.0 13.0 0.00 0.00 0.00 64 1000.0
20180622083103 51 4 6.0 12.0 0.00 0.00 0.00 64 1000.0
20180622082603 51 351 3.0 10.0 0.00 0.00 0.00 64 1000.1
20180622082104 51 0 3.0 7.0 0.00 0.00 0.00 62 1000.1
20180622081603 51 354 3.0 8.0 0.00 0.00 0.00 62 1000.1
20180622081104 51 343 3.0 8.0 0.00 0.00 0.00 63 1000.2
20180622080603 51 340 2.0 5.0 0.00 0.00 0.00 63 1000.2
20180622080104 51 351 4.0 10.0 0.00 0.00 0.00 64 1000.2
20180622075603 51 17 7.0 14.0 0.00 0.00 0.00 64 1000.1
20180622075104 51 3 5.0 16.0 0.00 0.00 0.00 66 1000.2
20180622074603 51 8 3.0 12.0 0.00 0.00 0.00 63 1000.2
20180622074103 51 346 4.0 14.0 0.00 0.00 0.00 64 1000.3
20180622073603 52 328 2.0 7.0 0.00 0.00 0.00 63 1000.2
20180622073103 52 340 2.0 6.0 0.00 0.00 0.00 64 1000.2
20180622072604 52 279 2.0 6.0 0.00 0.00 0.00 64 1000.3
20180622072104 52 334 2.0 8.0 0.00 0.00 0.00 64 1000.3
20180622071603 52 359 3.0 12.0 0.00 0.00 0.00 63 1000.3
20180622071103 51 19 1.0 3.0 0.00 0.00 0.00 65 1000.4
20180622070604 50 344 2.0 8.0 0.00 0.00 0.00 67 1000.3
20180622070104 49 345 3.0 6.0 0.00 0.00 0.00 68 1000.4
20180622065603 49 0 1.0 6.0 0.00 0.00 0.00 69 1000.5
20180622065104 49 327 1.0 6.0 0.00 0.00 0.00 70 1000.7
20180622064603 49 8 3.0 6.0 0.00 0.00 0.00 70 1000.8
20180622064103 49 336 1.0 6.0 0.00 0.00 0.00 69 1000.9
20180622063604 49 346 1.0 5.0 0.00 0.00 0.00 70 1000.9
20180622063104 49 331 0.0 3.0 0.00 0.00 0.00 71 1001.0
20180622062604 49 32 4.0 8.0 0.00 0.00 0.00 71 1000.9
20180622062103 49 11 4.0 10.0 0.00 0.00 0.00 69 1001.0
20180622061604 49 5 2.0 5.0 0.00 0.00 0.00 69 1001.0
20180622061104 49 355 2.0 5.0 0.00 0.00 0.00 68 1001.0
20180622060603 50 39 1.0 5.0 0.00 0.00 0.00 69 1001.0
20180622060104 50 16 1.0 5.0 0.00 0.00 0.00 68 1001.0
20180622055604 50 331 1.0 3.0 0.00 0.00 0.00 69 1001.0
20180622055103 49 333 1.0 5.0 0.00 0.00 0.00 71 1001.0
20180622054604 49 323 1.0 8.0 0.00 0.00 0.00 70 1001.0
20180622054103 49 338 1.0 5.0 0.00 0.00 0.00 70 1001.1
20180622053603 49 287 1.0 3.0 0.00 0.00 0.00 70 1001.1
20180622053104 49 350 1.0 7.0 0.00 0.00 0.00 71 1001.1
20180622052604 49 333 1.0 5.0 0.00 0.00 0.00 70 1001.1
20180622052104 49 342 2.0 5.0 0.00 0.00 0.00 71 1001.2
20180622051604 48 299 2.0 6.0 0.00 0.00 0.00 71 1001.3
20180622051104 48 323 2.0 5.0 0.00 0.00 0.00 72 1001.3
20180622050604 48 0 1.0 3.0 0.00 0.00 0.00 73 1001.4
20180622050104 48 3 1.0 5.0 0.00 0.00 0.00 73 1001.4
20180622045603 48 2 2.0 5.0 0.00 0.00 0.00 73 1001.5
20180622045103 47 30 2.0 6.0 0.00 0.00 0.00 73 1001.6
20180622044604 47 335 2.0 5.0 0.00 0.00 0.00 75 1001.6
20180622044103 47 0 1.0 3.0 0.00 0.00 0.00 77 1001.7
20180622043604 46 332 2.0 3.0 0.00 0.00 0.00 80 1001.8
20180622043104 46 17 1.0 5.0 0.00 0.00 0.00 80 1001.9
20180622042604 46 268 0.0 3.0 0.00 0.00 0.00 80 1001.9
20180622042104 46 313 2.0 3.0 0.00 0.00 0.00 80 1002.0
20180622041603 46 355 0.0 2.0 0.00 0.00 0.00 81 1002.0
20180622041103 45 329 0.0 2.0 0.00 0.00 0.00 81 1002.1
20180622040604 45 329 0.0 2.0 0.00 0.00 0.00 81 1002.2
20180622040104 45 333 0.0 3.0 0.00 0.00 0.00 81 1002.2
20180622035604 45 317 1.0 2.0 0.00 0.00 0.00 81 1002.2
20180622035104 45 12 0.0 2.0 0.00 0.00 0.00 82 1002.4
20180622034604 45 27 0.0 3.0 0.00 0.00 0.00 82 1002.4
20180622034104 45 279 1.0 3.0 0.00 0.00 0.00 83 1002.4
20180622033603 44 355 0.0 3.0 0.00 0.00 0.00 83 1002.5
20180622033104 44 317 0.0 2.0 0.00 0.00 0.00 82 1002.5
20180622032604 44 318 0.0 3.0 0.00 0.00 0.00 83 1002.5
20180622032103 44 319 1.0 3.0 0.00 0.00 0.00 83 1002.7
20180622031604 44 348 0.0 5.0 0.00 0.00 0.00 82 1002.7
20180622031103 44 339 1.0 2.0 0.00 0.00 0.00 82 1002.7
20180622030603 44 339 0.0 3.0 0.00 0.00 0.00 82 1002.8
20180622030104 44 342 1.0 3.0 0.00 0.00 0.00 82 1002.8
20180622025604 44 5 0.0 3.0 0.00 0.00 0.00 82 1002.8
20180622025104 44 5 2.0 3.0 0.00 0.00 0.00 82 1002.8
20180622024603 44 335 0.0 2.0 0.00 0.00 0.00 83 1002.9
20180622024104 44 336 0.0 3.0 0.00 0.00 0.00 83 1003.0
20180622023603 44 321 0.0 3.0 0.00 0.00 0.00 83 1002.9
20180622023103 44 333 1.0 3.0 0.00 0.00 0.00 83 1002.9
20180622022603 44 296 0.0 3.0 0.00 0.00 0.00 84 1002.9
20180622022104 43 260 0.0 2.0 0.00 0.00 0.00 84 1003.0
20180622021603 43 260 0.0 3.0 0.00 0.00 0.00 84 1003.0
20180622021104 43 5 0.0 2.0 0.00 0.00 0.00 84 1003.1
20180622020603 43 5 0.0 2.0 0.00 0.00 0.00 84 1003.2
20180622020104 43 5 0.0 3.0 0.00 0.00 0.00 85 1003.3
20180622015603 43 5 1.0 3.0 0.00 0.00 0.00 85 1003.3
20180622015103 42 248 1.0 3.0 0.00 0.00 0.00 86 1003.3
20180622014604 42 248 0.0 2.0 0.00 0.00 0.00 87 1003.4
20180622014104 42 248 0.0 0.0 0.00 0.00 0.00 87 1003.3
20180622013603 41 248 0.0 0.0 0.00 0.00 0.00 88 1003.4
20180622013103 41 248 0.0 3.0 0.00 0.00 0.00 88 1003.4
20180622012603 41 345 0.0 0.0 0.00 0.00 0.00 89 1003.4
20180622012104 40 345 0.0 1.0 0.00 0.00 0.00 90 1003.4
20180622011604 40 345 0.0 0.0 0.00 0.00 0.00 89 1003.5
20180622011103 40 345 0.0 1.0 0.00 0.00 0.00 89 1003.5
20180622010603 40 345 0.0 0.0 0.00 0.00 0.00 89 1003.4
20180622010104 40 345 0.0 0.0 0.00 0.00 0.00 89 1003.4
20180622005603 39 345 0.0 0.0 0.00 0.00 0.00 89 1003.4
20180622005104 39 345 0.0 0.0 0.00 0.00 0.00 89 1003.4
20180622004604 39 345 0.0 1.0 0.00 0.00 0.00 89 1003.4
20180622004104 39 345 0.0 0.0 0.00 0.00 0.00 88 1003.3
20180622003604 39 345 0.0 0.0 0.00 0.00 0.00 88 1003.4
20180622003104 40 345 0.0 0.0 0.00 0.00 0.00 88 1003.4
20180622002604 40 345 0.0 0.0 0.00 0.00 0.00 88 1003.5
20180622002104 40 345 0.0 0.0 0.00 0.00 0.00 87 1003.5
20180622001603 40 345 0.0 0.0 0.00 0.00 0.00 87 1003.6
20180622001104 40 345 0.0 0.0 0.00 0.00 0.00 87 1003.7
20180622000604 40 345 0.0 0.0 0.00 0.00 0.00 87 1003.7
20180622000104 40 345 0.0 0.0 0.00 0.00 0.00 86 1003.6
20180621235603 40 345 0.0 0.0 0.00 0.00 0.00 86 1003.7
20180621235103 40 345 0.0 1.0 0.00 0.00 0.00 86 1003.7
20180621234604 40 345 0.0 0.0 0.00 0.00 0.00 86 1003.8
20180621234103 40 345 0.0 0.0 0.00 0.00 0.00 85 1003.9
20180621233603 41 345 0.0 0.0 0.00 0.00 0.00 85 1003.9
20180621233104 41 345 0.0 0.0 0.00 0.00 0.00 84 1004.0
20180621232604 41 345 0.0 0.0 0.00 0.00 0.00 84 1004.0
20180621232103 41 345 0.0 0.0 0.00 0.00 0.00 84 1004.0
20180621231604 41 345 0.0 0.0 0.00 0.00 0.00 84 1003.9
20180621231104 42 345 0.0 0.0 0.00 0.00 0.00 84 1004.0
20180621230604 42 345 0.0 0.0 0.00 0.00 0.00 84 1004.0
20180621230104 42 345 0.0 0.0 0.00 0.00 0.00 82 1004.0
20180621225603 42 345 0.0 0.0 0.00 0.00 0.00 82 1004.0
20180621225104 42 345 0.0 0.0 0.00 0.00 0.00 81 1004.0
20180621224604 43 345 0.0 0.0 0.00 0.00 0.00 80 1004.1
20180621224103 43 345 0.0 0.0 0.00 0.00 0.00 79 1004.2